Location: Moena
(46.3667°N, 11.6500°E)
Time: 12:52:31
(UTC+00:00)

COSMOS 2251 DEB - Visible Passes

Search period start: 24 September 2021 00:00
Search period end: 04 October 2021 00:00
Orbit: 551 x 632 km, 74.0° (Epoch: 23 September)

Date Brightness Start Highest point End Pass type
(mag) Time Alt. Az. Time Alt. Az. Time Alt. Az.
28 Sep ? 04:07:59 10° ESE 04:09:55 13° E 04:11:49 10° ENE visible
29 Sep ? 04:15:00 10° SSE 04:18:12 20° E 04:21:21 10° NE visible
30 Sep ? 04:22:40 10° SSE 04:26:32 31° ESE 04:30:20 10° NE visible
01 Oct ? 04:30:41 10° S 04:34:54 50° ESE 04:39:03 10° NNE visible
02 Oct ? 04:38:57 10° SSW 04:43:19 81° ESE 04:47:35 10° NNE visible
03 Oct ? 03:11:52 10° SE 03:14:02 14° E 03:16:10 10° ENE visible
